Flag for Norway Weather past 2 weeks in Tananger, Norway

Now
55 °F

Sunny.


Feels Like: 53 °F
Forecast: 48 / 54 °F
Wind: 9 mph from Northwest

Location: Stavanger / Sola

Current Time: Sep 22, 2014 at 6:36:10 PM

Latest Report: Sep 22, 2014 at 5:50 PM


Visibility: 10 mi

Pressure: 30.07 "Hg

Humidity: 59%

Dew point: 41 °F

Location of TanangerLocation

Historic Weather in Tananger — Graph

°F

Tananger temperature yesterday

Maximum temperature yesterday: 59 °F (at 11:20 AM)
Minimum temperature yesterday: 52 °F (at 10:50 PM)
Average temperature yesterday: 56 °F

Past Weeks' High & Low Weather Summary

 TemperatureHumidityPressure
High73 °F (Sep 16, 4:20 PM)100% (Sep 8, 3:50 AM)30.45 "Hg (Sep 8, 3:50 AM)
Low45 °F (Sep 18, 6:20 AM)31% (Sep 16, 4:50 PM)29.83 "Hg (Sep 8, 2:50 AM)
Average58 °F76%30.14 "Hg
* Reported Sep 7 5:20 PM — Sep 22 5:20 PM, Tananger, Weather by CustomWeather, © 2014

Note: Actual official high and low records may vary slightly from our data, if they occured in-between our weather recording intervals... More about our weather records

Advertising

Tananger weather history for previous 24 hours

 ConditionsComfort  
Time TempWeatherWind HumidityBarometerVisibility
5:20 PM
Sep 22
55 °FSunny.12 mph59%30.07 "Hg10 mi
4:50 PM55 °FSunny.10 mph59%30.07 "Hg10 mi
4:20 PM57 °FSunny.12 mph55%30.07 "Hg10 mi
3:50 PM57 °FPassing clouds.9 mph51%30.07 "HgN/A
3:20 PM57 °FPassing clouds.8 mph55%30.07 "HgN/A
2:50 PM57 °FSunny.9 mph55%30.07 "Hg10 mi
2:20 PM57 °FPassing clouds.10 mph59%30.09 "HgN/A
1:50 PM57 °FPassing clouds.6 mph51%30.09 "HgN/A
1:20 PM57 °FSunny.7 mph51%30.07 "Hg10 mi
12:50 PM55 °FSunny.9 mph59%30.07 "Hg10 mi
12:20 PM55 °FPassing clouds.7 mph55%30.07 "HgN/A
11:50 AM55 °FPassing clouds.8 mph59%30.09 "HgN/A
11:20 AM55 °FSunny.6 mph55%30.09 "Hg10 mi
10:50 AM54 °FPassing clouds.3 mph63%30.09 "HgN/A
10:20 AM54 °FSunny.7 mph67%30.09 "Hg10 mi
9:50 AM52 °FSunny.7 mph67%30.07 "Hg10 mi
9:20 AM52 °FSunny.8 mph67%30.07 "Hg10 mi
8:50 AM50 °FSunny.8 mph71%30.07 "Hg10 mi
8:20 AM48 °FClear.8 mph76%30.07 "Hg10 mi
7:50 AM48 °FClear.9 mph76%30.07 "Hg10 mi
7:20 AM48 °FPassing clouds.6 mph71%30.04 "HgN/A
6:50 AM48 °FPassing clouds.5 mph71%30.04 "HgN/A
6:20 AM48 °FPassing clouds.9 mph76%30.04 "HgN/A
5:50 AM48 °FPassing clouds.10 mph71%30.04 "HgN/A
4:50 AM50 °FPassing clouds.7 mph71%30.04 "HgN/A
3:50 AM50 °FPassing clouds.14 mph76%30.01 "HgN/A
2:50 AM50 °FPassing clouds.16 mph71%30.01 "HgN/A
1:50 AM52 °FPassing clouds.16 mph72%30.01 "HgN/A
12:50 AM52 °FPassing clouds.16 mph67%30.01 "HgN/A
12:20 AM52 °FPassing clouds.18 mph67%30.01 "HgN/A
11:50 PM
Sep 21
52 °FPassing clouds.16 mph67%30.01 "HgN/A
11:20 PM52 °FPassing clouds.21 mph67%30.01 "HgN/A
10:50 PM52 °FPassing clouds.22 mph67%30.01 "HgN/A
10:20 PM54 °FPassing clouds.25 mph63%30.01 "HgN/A
9:50 PM54 °FPassing clouds.25 mph63%30.01 "HgN/A
9:20 PM54 °FPassing clouds.24 mph58%30.01 "HgN/A
8:50 PM54 °FPassing clouds.25 mph63%30.01 "HgN/A
8:20 PM55 °FPassing clouds.24 mph59%30.01 "HgN/A
7:50 PM55 °FPassing clouds.22 mph51%30.01 "HgN/A
7:20 PM55 °FPassing clouds.26 mph59%29.98 "HgN/A
6:50 PM55 °FPassing clouds.24 mph59%30.01 "HgN/A
6:20 PM55 °FScattered clouds.24 mph63%30.01 "HgN/A
Weather by CustomWeather, © 2014

See weather overviewHow to use our weather pages